Location: Reading
(51.4439°N, 0.9841°W)
Time: 04:57:29
(UTC+00:00)

ISS - Visible Passes

Search period start: 19 January 2019 00:00
Search period end: 29 January 2019 00:00
Orbit: 404 x 411 km, 51.6° (Epoch: 19 January)

Date Brightness Start Highest point End Pass type
(mag) Time Alt. Az. Time Alt. Az. Time Alt. Az.
23 Jan -1.3 19:12:47 10° SSW 19:13:39 16° SSW 19:13:39 16° SSW visible
24 Jan -2.1 18:21:59 10° SSW 18:24:28 20° SE 18:24:35 20° SE visible
25 Jan -1.5 17:31:41 10° SSE 17:33:18 13° SE 17:34:55 10° ESE visible
25 Jan -2.4 19:06:03 10° SW 19:08:09 33° SSW 19:08:09 33° SSW visible
26 Jan -2.8 18:14:53 10° SW 18:17:55 34° SSE 18:18:57 27° ESE visible
26 Jan -0.7 19:50:58 10° W 19:51:40 15° W 19:51:40 15° W visible
27 Jan -2.2 17:23:56 10° SSW 17:26:38 24° SSE 17:29:22 10° E visible
27 Jan -3.4 18:59:33 10° WSW 19:02:23 60° SW 19:02:23 60° SW visible
28 Jan -3.5 18:08:11 10° WSW 18:11:26 56° SSE 18:13:04 26° E visible
28 Jan -1.1 19:44:38 10° W 19:45:47 20° W 19:45:47 20° W visible
